Oaxaca, Mexico

9:39 PM CDT on September 29, 2016 (GMT -0500)
Xoxocotlan International

Weather History for MMOX - July, 2013

Change the Weather History Date:

Friday, July 26, 2013

  Actual Average Record
Temperature  
Mean Temperature 72 °F -  
Max Temperature 88 °F 79 °F 91 °F (2015)
Min Temperature 55 °F 59 °F 53 °F (2014)
Cooling Degree Days 6    
Growing Degree Days 22 (Base 50)    
Moisture  
Dew Point 54 °F    
Average Humidity 54    
Maximum Humidity 94    
Minimum Humidity 27    
Precipitation  
Precipitation 0.00 in - - ()
Sea Level Pressure  
Sea Level Pressure 30.12 in    
Wind  
Wind Speed 3 mph ()    
Max Wind Speed 8 mph    
Max Gust Speed -    
Visibility 8.4 miles    
Events      
Averages and records for this station are not official NWS values.
T = Trace of Precipitation, MM = Missing Value Source: Averaged Metar Reports

Daily Weather History Graph

Daily Weather History Graph

Search for Another Location

Airport or City:

Trip Planner

Search our weather history database for the weather conditions in past years. The results will help you decide how hot, cold, wet, or windy it might be!

Date:

Astronomy

Jul. 26, 2013 Rise Set
Actual Time 7:05 AM CDT 8:01 PM CDT
Civil Twilight 6:41 AM CDT 8:24 PM CDT
Nautical Twilight 6:14 AM CDT 8:52 PM CDT
Astronomical Twilight 5:46 AM CDT 9:19 PM CDT
Moon 11:10 PM CDT (7/26) 10:53 AM CDT (7/26)
Length of Visible Light 13h 42m
Length of Day
12h 56m
Waning Gibbous, 80% of the Moon is Illuminated
Jul 26
Waning Gibbous
Jul 29
Last Quarter
Aug 6
New
Aug 14
First Quarter
Aug 20
Full

Hourly Weather History & Observations

Time (CDT) Temp. Heat Index Dew Point Humidity Pressure Visibility Wind Dir Wind Speed Gust Speed Precip Events Conditions
12:45 AM 62 °F - 53 °F 66% 30.07 in 6 mi NNE 2.2 mph - -   Partly Cloudy
3:55 AM 60 °F - 56 °F 84% 30.06 in 6 mi NE 2.2 mph - -   Clear
6:06 AM 60.8 °F - 53.6 °F 77% 30.28 in 8.0 mi North 2.3 mph - N/A   Clear
6:58 AM 60 °F - 54 °F 74% 30.08 in 6 mi North 2.2 mph - -   Partly Cloudy
6:58 AM 59.0 °F - 53.6 °F 82% 30.02 in 8.0 mi North 8.1 mph - N/A   Scattered Clouds
7:41 AM 55.4 °F - 53.6 °F 94% 30.31 in 7.0 mi North 6.9 mph - N/A   Scattered Clouds
8:45 AM 62.6 °F - 55.4 °F 77% 30.33 in 7.0 mi NNE 5.8 mph - N/A   Scattered Clouds
9:45 AM 71 °F - 56 °F 50% 30.12 in 7 mi NE 4.5 mph - -   Partly Cloudy
9:50 AM 66.2 °F - 55.4 °F 68% 30.00 in 7.0 mi North 4.6 mph - N/A   Scattered Clouds
10:55 AM 71.6 °F - 55.4 °F 57% 30.33 in 7.0 mi ENE 2.3 mph - N/A   Scattered Clouds
11:52 AM 73.4 °F - 55.4 °F 53% 30.32 in 7.0 mi South 2.3 mph - N/A   Scattered Clouds
12:42 PM 75.2 °F - 55.4 °F 50% 29.98 in 7.0 mi West 4.6 mph - N/A   Scattered Clouds
12:45 PM 82 °F - 59 °F 35% 30.07 in 11 mi West 2.2 mph - -   Partly Cloudy
1:45 PM 77.0 °F - 53.6 °F 44% 30.28 in 10.0 mi WNW 6.9 mph - N/A   Mostly Cloudy
2:49 PM 78.8 °F - 53.6 °F 42% 30.25 in 10.0 mi SW 5.8 mph - N/A   Mostly Cloudy
3:45 PM 88 °F - 59 °F 27% 29.96 in 9 mi NE 2.2 mph - -   Partly Cloudy
3:45 PM 82.4 °F 81.7 °F 55.4 °F 39% 29.85 in 12.0 mi Calm Calm - N/A   Mostly Cloudy
4:46 PM 82.4 °F - 50.0 °F 32% 30.21 in 12.0 mi South 5.8 mph - N/A   Mostly Cloudy
5:45 PM 82.4 °F - 51.8 °F 35% 30.19 in 10.0 mi Calm Calm - N/A   Mostly Cloudy
6:45 PM 80.6 °F - 50.0 °F 34% 29.84 in 10.0 mi Calm Calm - N/A   Mostly Cloudy
7:56 PM 75.2 °F - 51.8 °F 44% 30.22 in 10.0 mi NNE 5.8 mph - N/A   Mostly Cloudy
8:52 PM 73.4 °F - 51.8 °F 47% 30.26 in 10.0 mi NNE 5.8 mph - N/A   Mostly Cloudy
9:45 PM 73 °F - 51 °F 35% 29.97 in 6 mi SSW 2.2 mph - -  
9:45 PM 73.4 °F - 51.8 °F 47% 29.88 in 8.0 mi East 8.1 mph - N/A   Mostly Cloudy